Regional Weather Roundup
Issued by NWS

Home | Current Version | Previous Version | Text Only | Print | Product List | Glossary On
Versions: 1 2 3 4 5 6 7 8 9 10 11 12 13 14 15 16 17 18 19 20 21 22 23 24 25 26 27 28 29 30 31 32 33 34 35 36 37 38 39 40 41 42 43 44 45 46 47 48 49 50
000
ASUS43 KFSD 200502
RWRSD

WEATHER ROUNDUP FOR SOUTH DAKOTA
NATIONAL WEATHER SERVICE SIOUX FALLS SD
1200 AM CDT WED SEP 20 2017

NOTE: "FAIR" INDICATES FEW OR NO CLOUDS BELOW 12,000 FEET WITH NO
SIGNIFICANT WEATHER AND/OR OBSTRUCTIONS TO VISIBILITY.


SDZ001>005-009-010-012>017-200600-
NORTHWEST AND NORTH CENTRAL SOUTH DAKOTA

CITY           SKY/WX    TMP DP  RH WIND       PRES   REMARKS
BUFFALO          N/A     43  41  93 W12       29.63F
FAITH            N/A     46  46 100 W9        29.68S
MOBRIDGE       CLOUDY    54  50  86 NW24G33   29.55F
$$

SDZ012>016-024>037-041>051-057-063-072>074-200600-
SOUTHWEST AND SOUTH CENTRAL SOUTH DAKOTA

CITY           SKY/WX    TMP DP  RH WIND       PRES   REMARKS
RAPID CTY ARPT NOT AVBL
PIERRE         PTCLDY    56  49  77 NW22G32   29.60R
CUSTER         CLEAR     38  28  67 W8        29.77S
ELLSWORTH AFB  CLEAR     44  44  99 NW6       29.73S
PHILIP         CLOUDY    51  48  89 NW12      29.70R
SPEARFISH      FAIR      43  34  70 W8        29.75S
WINNER         FAIR      63  49  60 NW21G31   29.62S
$$

SDZ004>011-016>023-039-040-200600-
NORTHEAST SOUTH DAKOTA

CITY           SKY/WX    TMP DP  RH WIND       PRES   REMARKS
ABERDEEN       CLOUDY    61  54  77 NW15      29.54R
WATERTOWN      CLOUDY    64  57  78 NW17G29   29.56R
BROOKINGS      TSTM      63  57  81 NW20G35   29.61R
SISSETON         N/A     67  61  81 NW21G29   29.45R
$$

SDZ017-020-022-023-036>040-048>070-200600-
SOUTHEAST SOUTH DAKOTA

CITY           SKY/WX    TMP DP  RH WIND       PRES   REMARKS
SIOUX FALLS    TSTM      59  59 100 NW26G40   29.60R FOG
HURON          CLOUDY    63  54  72 NW12      29.60R
CHAMBERLAIN    PTCLDY    64  52  65 W15       29.61R
MITCHELL       CLOUDY    62  57  83 NW6       29.60R
YANKTON        TSTM      61  56  83 N22G32    29.62R
$$

ABBREVIATIONS USED IN REMARKS
   TC - TEMPERATURE IN CELSIUS
  WCI - WIND CHILL INDEX
   HX - HEAT INDEX
  VSB - VISIBILITY





USA.gov is the U.S. government's official web portal to all federal, state and local government web resources and services.